EW7262 Weather Reports


time (UTC)temp
F
wind
direction
speed
knots
gust
knots
rain 1hr
in
rain 24hr
in
rain mn
in
humidity
%
barometer
mb
20260906214527 91 143 0.0 0.0 0.00 0.00 0.00 22 1000.8
20260906213025 91 173 0.0 0.0 0.00 0.00 0.00 22 1001.1
20260906211519 92 161 0.0 0.0 0.00 0.00 0.00 22 1001.2
20260906210019 92 142 0.0 0.0 0.00 0.00 0.00 22 1001.1
20260906204517 91 169 0.0 0.0 0.00 0.00 0.00 23 1001.3
20260906203014 91 140 0.0 0.0 0.00 0.00 0.00 23 1001.6
20260906201512 91 157 0.0 0.0 0.00 0.00 0.00 23 1001.8
20260906200010 91 145 0.0 0.0 0.00 0.00 0.00 25 1002.0
20260906194508 91 227 0.0 0.0 0.00 0.00 0.00 23 1002.0
20260906193006 90 163 0.0 0.0 0.00 0.00 0.00 27 1002.3
20260906191504 89 144 0.0 0.0 0.00 0.00 0.00 28 1002.4
20260906190113 88 182 0.0 0.0 0.00 0.00 0.00 31 1002.6
20260906184556 87 178 0.0 0.0 0.00 0.00 0.00 32 1002.7
20260906183052 86 157 0.0 0.0 0.00 0.00 0.00 35 1002.9
20260906181547 84 117 0.0 0.0 0.00 0.00 0.00 38 1003.1
20260906180043 83 117 0.0 0.0 0.00 0.00 0.00 41 1003.5
20260906174542 82 360 0.0 0.0 0.00 0.00 0.00 43 1003.7
20260906173034 81 150 0.0 0.0 0.00 0.00 0.00 44 1003.9
20260906171530 80 132 0.0 0.0 0.00 0.00 0.00 47 1004.1
20260906170031 79 360 0.0 0.0 0.00 0.00 0.00 49 1004.3
20260906164521 78 155 0.0 0.0 0.00 0.00 0.00 50 1004.5
20260906163017 77 132 0.0 0.0 0.00 0.00 0.00 52 1004.5
20260906161520 76 360 0.0 0.0 0.00 0.00 0.00 54 1004.5
20260906160009 75 360 0.0 0.0 0.00 0.00 0.00 56 1004.7
20260906154510 74 159 0.0 0.0 0.00 0.00 0.00 57 1004.7
20260906153105 73 155 0.0 0.0 0.00 0.00 0.00 59 1004.8
20260906151557 72 360 0.0 0.0 0.00 0.00 0.00 61 1004.8
20260906150058 71 360 0.0 0.0 0.00 0.00 0.00 62 1004.8
20260906144548 69 360 0.0 0.0 0.00 0.00 0.00 66 1004.9
20260906143046 67 360 0.0 0.0 0.00 0.00 0.00 70 1004.9
20260906141543 66 155 0.0 0.0 0.00 0.00 0.00 73 1004.8
20260906140037 64 161 0.0 0.0 0.00 0.00 0.00 77 1004.8
20260906134543 63 360 0.0 0.0 0.00 0.00 0.00 79 1004.9
20260906133047 62 360 0.0 0.0 0.00 0.00 0.00 83 1004.8
20260906131523 59 360 0.0 0.0 0.00 0.00 0.00 86 1004.7
20260906130019 58 188 0.0 0.0 0.00 0.00 0.00 86 1004.6
20260906124517 58 360 0.0 0.0 0.00 0.00 0.00 86 1004.5
20260906123022 59 360 0.0 0.0 0.00 0.00 0.00 86 1004.3
20260906121514 58 180 0.0 0.0 0.00 0.00 0.00 87 1004.2
20260906120013 58 173 0.0 0.0 0.00 0.00 0.00 86 1004.1
20260906114511 58 173 0.0 0.0 0.00 0.00 0.00 86 1004.1
20260906113009 58 177 0.0 0.0 0.00 0.00 0.00 85 1004.1
20260906111506 59 360 0.0 0.0 0.00 0.00 0.00 84 1004.1
20260906110004 60 173 0.0 0.0 0.00 0.00 0.00 83 1004.0
20260906104629 61 178 0.0 0.0 0.00 0.00 0.00 82 1003.9
20260906103103 61 360 0.0 0.0 0.00 0.00 0.00 82 1003.8
20260906101558 61 171 0.0 0.0 0.00 0.00 0.00 81 1003.8
20260906100055 62 360 0.0 0.0 0.00 0.00 0.00 80 1003.7
20260906094553 63 152 0.0 0.0 0.00 0.00 0.00 79 1003.7
20260906093108 63 360 0.0 0.0 0.00 0.00 0.00 78 1003.8
20260906091551 63 360 0.0 0.0 0.00 0.00 0.00 78 1004.0
20260906090051 63 157 0.0 0.0 0.00 0.00 0.00 78 1004.0
20260906084549 63 360 0.0 0.0 0.00 0.00 0.00 75 1003.8
20260906083049 63 360 0.0 0.0 0.00 0.00 0.00 75 1004.0
20260906081548 63 360 0.0 0.0 0.00 0.00 0.00 73 1003.8
20260906080043 63 360 0.0 0.0 0.00 0.00 0.00 72 1003.9
20260906074542 64 155 0.0 0.0 0.00 0.00 0.00 72 1003.9
20260906073040 64 360 0.0 0.0 0.00 0.00 0.00 71 1003.9
20260906071539 64 360 0.0 0.0 0.00 0.00 0.00 71 1003.7
20260906070036 65 170 0.0 0.0 0.00 0.00 0.00 68 1003.7
20260906064533 66 360 0.0 0.0 0.00 0.00 0.00 67 1003.8
20260906063031 67 165 0.0 0.0 0.00 0.00 0.00 65 1003.9
20260906061527 68 169 0.0 0.0 0.00 0.00 0.00 62 1004.0
20260906060028 69 360 0.0 0.0 0.00 0.00 0.00 60 1004.3
20260906054521 70 145 0.0 0.0 0.00 0.00 0.00 57 1004.3
20260906053020 71 146 0.0 0.0 0.00 0.00 0.00 53 1004.3
20260906051518 71 360 0.0 0.0 0.00 0.00 0.00 51 1004.2
20260906050018 70 150 0.0 0.0 0.00 0.00 0.00 51 1004.0
20260906044521 70 157 0.0 0.0 0.00 0.00 0.00 50 1003.9
20260906043017 70 360 0.0 0.0 0.00 0.00 0.00 49 1003.8
20260906041522 70 150 0.0 0.0 0.00 0.00 0.00 48 1003.9
20260906040017 71 360 0.0 0.0 0.00 0.00 0.00 46 1003.8
20260906034512 71 360 0.0 0.0 0.00 0.00 0.00 43 1003.9
20260906033012 72 153 0.0 0.0 0.00 0.00 0.00 41 1003.8
20260906031511 73 148 0.0 0.0 0.00 0.00 0.00 40 1003.8
20260906030010 74 360 0.0 0.0 0.00 0.00 0.00 38 1003.7
20260906024510 75 155 0.0 0.0 0.00 0.00 0.00 37 1003.5
20260906023018 77 165 0.0 0.0 0.00 0.00 0.00 35 1003.4
20260906021513 78 157 0.0 0.0 0.00 0.00 0.00 33 1003.2
20260906020008 78 360 0.0 0.0 0.00 0.00 0.00 28 1003.1
20260906014507 79 360 0.0 0.0 0.00 0.00 0.00 25 1002.7
20260906013006 80 360 0.0 0.0 0.00 0.00 0.00 24 1002.7
20260906011506 81 132 0.0 0.0 0.00 0.00 0.00 24 1002.6
20260906010005 82 132 0.0 0.0 0.00 0.00 0.00 23 1002.5
20260906004506 85 132 0.0 0.0 0.00 0.00 0.00 21 1002.4
20260906003003 86 128 0.0 0.0 0.00 0.00 0.00 20 1002.5
20260906001503 87 144 0.0 0.0 0.00 0.00 0.00 19 1002.5
20260906000003 88 116 0.0 0.0 0.00 0.00 0.00 19 1002.5
20260905234503 88 148 0.0 0.0 0.00 0.00 0.00 18 1002.6
20260905233101 89 117 0.0 0.0 0.00 0.00 0.00 18 1002.5
20260905233003 89 116 0.0 0.0 0.00 0.00 0.00 18 1002.5
20260905231559 90 279 0.0 0.0 0.00 0.00 0.00 18 1002.4
20260905230126 90 244 0.0 0.0 0.00 0.00 0.00 17 1002.3
20260905224557 91 222 0.0 0.0 0.00 0.00 0.00 17 1002.3
20260905223057 91 180 0.0 0.0 0.00 0.00 0.00 17 1002.4
20260905221600 91 167 0.0 0.0 0.00 0.00 0.00 18 1002.5
20260905220056 90 159 0.0 0.0 0.00 0.00 0.00 18 1002.7